Cecil Field, FL

9:58 PM EDT on October 16, 2017 (GMT -0400)
Cecil

Weather History for KVQQ - July, 2013

Change the Weather History Date:

Thursday, July 11, 2013

  Actual Average (KNIP) Record (KNIP)
Temperature  
Mean Temperature 81 °F -  
Max Temperature 91 °F 88 °F 99 °F (2015)
Min Temperature 71 °F 73 °F 72 °F (2000)
Cooling Degree Days 16    
Growing Degree Days 31 (Base 50)    
Moisture  
Dew Point 73 °F    
Average Humidity 91    
Maximum Humidity 100    
Minimum Humidity 52    
Precipitation  
Precipitation 0.48 in - - ()
Sea Level Pressure  
Sea Level Pressure 29.98 in    
Wind  
Wind Speed 3 mph (SSE)    
Max Wind Speed 14 mph    
Max Gust Speed -    
Visibility 8 miles    
Events Rain    
Averages and records for this station are not official NWS values.
T = Trace of Precipitation, MM = Missing Value Source: NWS Daily Summary

Daily Weather History Graph

Daily Weather History Graph

Search for Another Location

Airport or City:

Trip Planner

Search our weather history database for the weather conditions in past years. The results will help you decide how hot, cold, wet, or windy it might be!

Date:

Astronomy

Jul. 11, 2013 Rise Set
Actual Time 6:34 AM EDT 8:31 PM EDT
Civil Twilight 6:07 AM EDT 8:58 PM EDT
Nautical Twilight 5:34 AM EDT 9:31 PM EDT
Astronomical Twilight 4:59 AM EDT 10:06 PM EDT
Moon 9:34 AM EDT (7/11) 10:30 PM EDT (7/11)
Length of Visible Light 14h 51m
Length of Day
13h 57m
Waxing Crescent, 10% of the Moon is Illuminated
Jul 11
Waxing Crescent
Jul 15
First Quarter
Jul 22
Full
Jul 29
Last Quarter
Aug 6
New

Hourly Weather History & Observations

Time (EDT) Temp. Heat Index Dew Point Humidity Pressure Visibility Wind Dir Wind Speed Gust Speed Precip Events Conditions
12:15 AM 75.2 °F - 75.2 °F 100% 30.04 in 5.0 mi Calm Calm - N/A Rain Light Rain
12:35 AM 75.2 °F - 75.2 °F 100% 30.04 in 4.0 mi ESE 5.8 mph - 0.04 in Rain Light Rain
12:55 AM 75.2 °F - 75.2 °F 100% 30.03 in 1.5 mi ESE 4.6 mph - 0.29 in Rain Heavy Rain
1:15 AM 75.2 °F - 75.2 °F 100% 30.02 in 1.5 mi SE 5.8 mph - 0.17 in Rain Rain
1:35 AM 75.2 °F - 75.2 °F 100% 30.01 in 7.0 mi SE 5.8 mph - 0.19 in Rain Light Rain
1:55 AM 75.2 °F - 75.2 °F 100% 30.00 in 10.0 mi ESE 3.5 mph - 0.19 in   Partly Cloudy
2:15 AM 73.4 °F - 73.4 °F 100% 30.01 in 10.0 mi Calm Calm - N/A   Clear
2:35 AM 73.4 °F - 73.4 °F 100% 30.01 in 10.0 mi Calm Calm - N/A   Partly Cloudy
2:55 AM 73.4 °F - 73.4 °F 100% 30.01 in 10.0 mi Calm Calm - N/A   Clear
3:15 AM 73.4 °F - 73.4 °F 100% 30.01 in 10.0 mi Calm Calm - N/A   Clear
3:35 AM 73.4 °F - 73.4 °F 100% 30.00 in 10.0 mi Calm Calm - N/A   Clear
3:55 AM 73.4 °F - 73.4 °F 100% 30.01 in 8.0 mi Calm Calm - N/A   Clear
4:15 AM 73.4 °F - 73.4 °F 100% 30.00 in 6.0 mi Calm Calm - N/A   Clear
4:35 AM 71.6 °F - 71.6 °F 100% 30.00 in 5.0 mi Calm Calm - N/A   Clear
4:55 AM 71.6 °F - 71.6 °F 100% 30.00 in 5.0 mi Calm Calm - N/A   Clear
5:15 AM 71.6 °F - 71.6 °F 100% 30.01 in 3.0 mi Calm Calm - N/A   Clear
5:35 AM 71.6 °F - 71.6 °F 100% 30.00 in 3.0 mi Calm Calm - N/A   Clear
5:55 AM 71.6 °F - 71.6 °F 100% 30.00 in 6.0 mi Calm Calm - N/A   Clear
6:15 AM 71.6 °F - 71.6 °F 100% 30.01 in 8.0 mi Calm Calm - N/A   Clear
6:35 AM 71.6 °F - 71.6 °F 100% 30.01 in 7.0 mi Calm Calm - N/A   Clear
6:50 AM 71.6 °F - 71.6 °F 100% 30.00 in 7.0 mi Calm Calm - N/A   Clear
7:50 AM 73.4 °F - 73.4 °F 100% 30.01 in 10.0 mi SSE 5.8 mph - N/A   Clear
8:50 AM 77.0 °F - 75.2 °F 94% 30.01 in 10.0 mi South 9.2 mph - N/A   Partly Cloudy
9:50 AM 80.6 °F 86.2 °F 75.2 °F 84% 30.01 in 10.0 mi SSW 4.6 mph - N/A   Scattered Clouds
10:50 AM 84.2 °F 92.3 °F 75.2 °F 74% 30.01 in 10.0 mi South 8.1 mph - N/A   Mostly Cloudy
11:50 AM 84.2 °F 90.9 °F 73.4 °F 70% 30.01 in 10.0 mi SSW 5.8 mph - N/A   Mostly Cloudy
12:50 PM 87.8 °F 95.6 °F 73.4 °F 62% 29.99 in 10.0 mi SSW 4.6 mph - N/A   Scattered Clouds
1:50 PM 89.6 °F 96.2 °F 71.6 °F 55% 29.97 in 10.0 mi Variable 5.8 mph - N/A   Scattered Clouds
2:50 PM 89.6 °F 96.2 °F 71.6 °F 55% 29.95 in 10.0 mi Calm Calm - N/A   Scattered Clouds
3:50 PM 91.4 °F 98.4 °F 71.6 °F 52% 29.92 in 10.0 mi South 4.6 mph - N/A   Scattered Clouds
4:50 PM 87.8 °F 97.6 °F 75.2 °F 66% 29.90 in 10.0 mi Calm Calm - N/A   Scattered Clouds
5:50 PM 87.8 °F 97.6 °F 75.2 °F 66% 29.89 in 10.0 mi SSW 6.9 mph - N/A   Mostly Cloudy
6:50 PM 80.6 °F 85.4 °F 73.4 °F 79% 29.91 in 10.0 mi South 13.8 mph - N/A   Mostly Cloudy
7:50 PM 77.0 °F - 73.4 °F 89% 29.94 in 10.0 mi South 4.6 mph - N/A   Mostly Cloudy
8:15 PM 77.0 °F - 73.4 °F 89% 29.95 in 10.0 mi SE 4.6 mph - N/A   Mostly Cloudy
8:35 PM 75.2 °F - 73.4 °F 94% 29.95 in 10.0 mi SSE 3.5 mph - N/A   Scattered Clouds
8:55 PM 75.2 °F - 73.4 °F 94% 29.94 in 10.0 mi SSE 3.5 mph - N/A   Partly Cloudy
9:15 PM 75.2 °F - 73.4 °F 94% 29.94 in 10.0 mi Calm Calm - N/A   Clear
9:35 PM 75.2 °F - 73.4 °F 94% 29.94 in 10.0 mi Calm Calm - N/A   Clear
9:55 PM 75.2 °F - 73.4 °F 94% 29.94 in 10.0 mi SSE 3.5 mph - N/A   Clear
10:15 PM 73.4 °F - 73.4 °F 100% 29.94 in 10.0 mi SSE 3.5 mph - N/A   Clear
10:35 PM 73.4 °F - 73.4 °F 100% 29.93 in 10.0 mi South 3.5 mph - N/A   Clear
10:55 PM 73.4 °F - 73.4 °F 100% 29.94 in 10.0 mi SSE 3.5 mph - N/A   Clear
11:15 PM 73.4 °F - 73.4 °F 100% 29.95 in 10.0 mi Calm Calm - N/A   Clear
11:35 PM 73.4 °F - 73.4 °F 100% 29.95 in 10.0 mi Calm Calm - N/A   Clear
11:55 PM 73.4 °F - 73.4 °F 100% 29.96 in 10.0 mi SSE 3.5 mph - N/A   Clear